loading
|
DECAYED

SL-4 R/B, 61044 (Decayed)

Orbit data source: Space-Track

SL-4 R/B, 61044 was space debris in LEO originally from a launch on Wed, 11 Sep 2024 UTC launched from the Tyuratam Missile And Space Complex (TTMTR). Debris objects in space refer to the collection of defunct objects orbiting the Earth. Examples of debris include non-operational satellites, rocket bodies, and fragments generated from explosions, collisions, or faulty payload assembly.

Next visibility unknown
Next conjunction unknown
No 3D visualization available: RSO Decayed
SL-4 R/B details
Identifier
61044, 2024-162B
Orbit
Decayed
Last TLE update1 month ago
Origin
Flag of CISRVSN RF (CIS)
ManufacturerTsSKB-Progress
MissionDecayed spacecraft
Bus & MotorBLOK-I, RD-0110
Mass2,350 kg wet, 2,350 kg dry
Launch date (UTC)
2024-09-11 (1 month ago)
Launch vehicleUnknown
Launch site
Tyuratam Missile And Space Complex (TTMTR)
Object type
Payload
Rocket body
Debris
Shape & HBRUnknown
Radar Cross SectionLarge (>1 m²)

Expand to show TLE details & history

TLE from 1 month ago
0 SL-4 R/B
1 61044U 24162B   24257.35435400  .20508142  12653-4  36769-3 0  9991
2 61044  51.6564 237.6431 0005037  55.6763  97.7759 16.47424603   277
Epoch: 2024-09-13T08:30Z
Definitive object data (Epoch: 2024-09-13T08:30:16.185Z)
Latitude20.528°
Longitude-79.8777°
Altitude146.94 km
Speed7.821 km/s
True Right ascension02h 42m 04s
True Declination20° 24' 17"
Sunlit
Object was in full shadow at TLE epoch
Predictive object data (real-time)
LatitudeUnknown
LongitudeUnknown
AltitudeUnknown
SpeedUnknown
Apparent Right ascensionUnknown
Apparent DeclinationUnknown
SunlitUnknown
Predictive observer data (real-time)
Local Sidereal Time08:58:40
AzimuthUnknown
ElevationUnknown
Doppler factorUnknown
Orbital elements
Apogee149.939 km
Perigee143.366 km
Semi-major axis6,524.789 km
Eccentricity0.0005037
Inclination51.6564°
RAAN237.6431°
Arg. of periapsis55.6763°
True anomaly97.83308°
Mean anomaly97.7759°
Eccentric anomaly97.80449°
Mean motion4.11807 °/min
BSTAR0.00036769
Period87.42 mins
No data available
No data available
Other satellites on launch #162 in the year 2024 (2024-09-11 UTC)

SL-4 R/B Visibility forecast

Observer location: 39.9160978°, -105.1181434

This satellite is decayed
Span
Click to sort rows by Start time (UTC) header in descending order
Start Az.
Max El. time (UTC)
Max El. Az.
Max El.
End time (UTC)
End Az.